TimeEDT,TemperatureF,Dew PointF,Humidity,Sea Level PressureIn,VisibilityMPH,Wind Direction,Wind SpeedMPH,Gust SpeedMPH,PrecipitationIn,Events,Conditions,WindDirDegrees,DateUTC
12:51 AM,55.9,46.0,69,30.19,10.0,ESE,3.5,-,N/A,,Overcast,110,2014-05-08 04:51:00
1:51 AM,55.9,46.9,72,30.16,10.0,ESE,3.5,-,N/A,,Overcast,120,2014-05-08 05:51:00
2:01 AM,55.9,46.9,72,30.16,10.0,Calm,Calm,-,N/A,,Overcast,0,2014-05-08 06:01:00
2:51 AM,57.0,48.0,72,30.15,10.0,SSE,3.5,-,N/A,,Overcast,160,2014-05-08 06:51:00
3:51 AM,57.9,48.9,72,30.14,10.0,SSE,8.1,-,N/A,,Overcast,160,2014-05-08 07:51:00
4:51 AM,57.2,51.8,82,30.15,9.0,ESE,5.8,-,N/A,Rain,Light Rain,120,2014-05-08 08:51:00
5:51 AM,55.9,50.0,80,30.14,10.0,ENE,5.8,-,0.00,,Overcast,70,2014-05-08 09:51:00
6:51 AM,55.9,51.1,84,30.16,10.0,ENE,6.9,-,N/A,,Overcast,60,2014-05-08 10:51:00
7:07 AM,55.9,51.1,84,30.16,10.0,NE,6.9,-,N/A,,Overcast,50,2014-05-08 11:07:00
7:51 AM,55.4,51.8,88,30.17,10.0,ENE,8.1,-,N/A,,Overcast,60,2014-05-08 11:51:00
8:51 AM,55.9,52.0,87,30.17,10.0,NE,5.8,-,N/A,,Overcast,50,2014-05-08 12:51:00
9:51 AM,57.0,54.0,89,30.16,2.0,NE,8.1,-,0.00,,Overcast,40,2014-05-08 13:51:00
10:13 AM,57.0,55.0,93,30.12,4.0,SE,5.8,-,N/A,,Overcast,130,2014-05-08 14:13:00
10:51 AM,59.0,54.0,83,30.14,10.0,Variable,4.6,-,N/A,,Overcast,0,2014-05-08 14:51:00
11:42 AM,61.0,55.0,81,30.13,10.0,Calm,Calm,-,N/A,,Overcast,0,2014-05-08 15:42:00
11:51 AM,62.1,55.9,80,30.13,10.0,Calm,Calm,-,N/A,,Overcast,0,2014-05-08 15:51:00
12:17 PM,64.9,57.0,75,30.11,10.0,Calm,Calm,-,N/A,,Overcast,0,2014-05-08 16:17:00
12:51 PM,66.9,55.9,68,30.11,10.0,Calm,Calm,-,N/A,,Mostly Cloudy,0,2014-05-08 16:51:00
1:09 PM,69.1,57.0,65,30.10,10.0,WNW,5.8,-,N/A,,Scattered Clouds,290,2014-05-08 17:09:00
1:51 PM,66.9,57.0,70,30.09,9.0,East,10.4,-,N/A,,Partly Cloudy,100,2014-05-08 17:51:00
2:51 PM,71.1,57.9,63,30.08,8.0,East,6.9,-,N/A,,Clear,100,2014-05-08 18:51:00
3:51 PM,73.0,57.9,59,30.06,9.0,East,6.9,-,N/A,,Clear,90,2014-05-08 19:51:00
4:51 PM,73.9,59.0,59,30.05,10.0,ENE,9.2,-,N/A,,Clear,60,2014-05-08 20:51:00
5:51 PM,73.0,57.9,59,30.05,10.0,ENE,5.8,-,N/A,,Clear,70,2014-05-08 21:51:00
6:51 PM,72.0,57.9,61,30.06,10.0,East,8.1,-,N/A,,Clear,80,2014-05-08 22:51:00
7:51 PM,69.1,57.0,65,30.07,10.0,East,8.1,-,N/A,,Clear,80,2014-05-08 23:51:00
8:51 PM,66.9,57.0,70,30.10,10.0,East,10.4,-,N/A,,Clear,80,2014-05-09 00:51:00
9:51 PM,63.0,55.9,78,30.13,10.0,ENE,9.2,-,N/A,,Clear,70,2014-05-09 01:51:00
10:51 PM,62.6,55.4,77,30.13,10.0,ESE,9.2,-,N/A,,Clear,110,2014-05-09 02:51:00
11:15 PM,61.0,55.9,83,30.14,10.0,East,11.5,-,N/A,,Mostly Cloudy,100,2014-05-09 03:15:00
11:51 PM,61.0,55.9,83,30.15,10.0,East,10.4,-,N/A,,Overcast,80,2014-05-09 03:51:00